Regional Weather Roundup
Issued by NWS Spokane, WA

Home | Current Version | Previous Version | Text Only | Print | Product List | Glossary On
Versions: 1 2 3 4 5 6 7 8 9 10 11 12 13 14 15 16 17 18 19 20 21 22 23 24 25 26 27 28 29 30 31 32 33 34 35 36 37 38 39 40 41 42 43 44 45 46 47 48 49 50
000
NZUS01 KOTX 281010
RWROTX
EASTERN WASHINGTON/NORTHERN IDAHO ROUNDUP
NATIONAL WEATHER SERVICE, SPOKANE WA
300 AM PDT FRI AUG 28 2015

Note: "fair" indicated few or no clouds below 12,000 feet with no
significant weather and/or obstructions to visibility.

...NORTHEAST WASHINGTON AND NORTHERN IDAHO PANHANDLE...

CITY           SKY/WX    TMP DP  RH WIND       PRES   REMARKS
SPOKANE INTL   CLOUDY    66  39  37 SE8       29.97F
SPOKANE DOWNTO FAIR      65  43  44 NE7       29.97S
COEUR D ALENE  FAIR      64  48  55 SE5       29.99R
DEER PARK      FAIR      56  39  53 CALM      29.98R
SANDPOINT      FAIR      54  43  66 CALM      29.97S
BONNERS FERRY  CLOUDY    64  41  42 CALM      29.96S

...SOUTHEAST WASHINGTON AND SOUTHERN IDAHO PANHANDLE...

CITY           SKY/WX    TMP DP  RH WIND       PRES   REMARKS
WALLA WALLA    FAIR      75  41  29 S6        29.92S
PULLMAN/MOSCOW FAIR      66  40  38 E5        30.01F
LEWISTON       FAIR      68  40  35 SE7       29.95S
LOWELL           N/A     58  50  75 CALM      30.04S

...COLUMBIA BASIN...

CITY           SKY/WX    TMP DP  RH WIND       PRES   REMARKS
EPHRATA        FAIR      72  40  31 S3        29.90F
MOSES LAKE     FAIR      65  49  56 CALM      29.91F
TRI CITIES     FAIR      62  55  77 N3        29.89S
HERMISTON      FAIR      61  47  59 CALM      29.91R
PENDLETON      FAIR      67  39  35 SE5       29.95S

...EAST SLOPES CASCADES...

CITY           SKY/WX    TMP DP  RH WIND       PRES   REMARKS
THE DALLES     FAIR      77  45  32 W5        29.93R
YAKIMA         FAIR      66  49  54 W9        29.92F
ELLENSBURG     FAIR      73  43  33 NW10      29.94F
WENATCHEE      FAIR      76  40  27 NW5       29.91F
OMAK           MOCLDY    69  38  32 N7        29.90F HAZE

...SOUTHERN BRITISH COLUMBIA...

CITY           SKY/WX    TMP DP  RH WIND       PRES   REMARKS
PENTICTON      MOCLDY    68  45  42 E6        29.90F
CRANBROOK      CLEAR     55  41  58 SE2       29.98S SMOKE

...WESTERN MONTANA...

CITY           SKY/WX    TMP DP  RH WIND       PRES   REMARKS
MISSOULA       CLOUDY    59  41  51 E8        30.09S HAZE

...NEIGHBORING CITIES...

CITY           SKY/WX    TMP DP  RH WIND       PRES   REMARKS
SEATTLE        MOCLDY    66  48  52 SW7       29.99R
CALGARY        MOCLDY    61  43  51 SW9       29.92S SMOKE



USA.gov is the U.S. government's official web portal to all federal, state and local government web resources and services.